Location: Andiroba
(19.8650°S, 43.9258°W)
Time: 01:32:55
(UTC+00:00)

ATLAS 3B R/B - Pass Details

Date: 15 June 2024
Orbit: 941 x 1253 km, 63.8° (Epoch: 24 July)

Event Time Altitude Azimuth Distance (km) Brightness Sun altitude
Exits shadow 07:24:41 48° 324° (NW) 1,264 2.9 -28.1°
Drops below altitude 10° 07:30:01 10° 8° (N) 2,809 5.2 -26.9°
Sets 07:32:46 0° 12° (NNE) 3,801 6.0 -26.3°
